Location: Corm�de
(45.8196°N, 3.2387°E)
Time: 09:46:21
(UTC+00:00)

Daily predictions for brighter satellites

Satellite Brightness Start Highest point End
(mag) Time Altitude Azimuth Time Altitude Azimuth Time Altitude Azimuth
Cosmos 1898 Rocket 3.9 16:29:21 10° N 16:34:20 41° ENE 16:39:14 10° SE
Cosmos 44 3.3 16:29:55 10° NW 16:34:44 84° SW 16:39:13 10° SSE
Sich 1 4.2 16:32:25 10° NNE 16:35:41 21° ENE 16:38:57 10° ESE
Cosmos 1933 4.4 16:32:41 10° SE 16:36:01 25° E 16:39:21 10° NNE
Cosmos 1842 Rocket 3.6 16:34:08 10° S 16:38:34 72° E 16:43:03 10° NNE
Okean 3 Rocket 4.5 16:34:09 10° NNW 16:38:34 55° W 16:42:55 10° S
Cosmos 2221 2.5 16:34:24 10° S 16:38:39 83° E 16:42:59 10° N
SL-08 R/B 3.5 16:41:14 10° NNE 16:45:59 79° WNW 16:50:36 10° SSW
Cosmos 2084 3.4 16:46:32 10° NW 16:50:49 70° NE 16:55:16 10° SE
Cosmos 1656 3.8 16:45:59 10° NNW 16:51:32 82° WSW 16:57:08 10° SSE
AQUARIUS 4.4 16:48:02 10° SE 16:52:20 49° ENE 16:56:41 10° N
FengYun 1-2 T 4.2 16:48:11 10° SSE 16:53:45 77° ENE 16:59:19 10° NNW
H-2A R/B 2.6 16:50:10 10° SE 16:54:48 34° ENE 16:59:21 10° N
Cosmos 2034 Rocket 4.0 16:49:13 10° S 16:55:20 80° E 17:01:32 10° N
ERBS 4.1 16:54:35 10° WNW 16:57:04 20° NNW 16:59:33 10° NNE
Cosmos 2322 Rocket 4.0 16:56:49 10° NNE 16:58:37 11° NE 17:00:05 10° NE
Cosmos 1666 4.2 16:56:26 10° NNE 16:58:40 15° ENE 17:00:54 10° ESE
USA 306 4.2 16:56:52 10° WNW 17:00:34 28° N 17:03:44 13° NE
Cosmos 1697 Rocket 2.7 16:57:17 10° NNW 17:02:54 65° ENE 17:08:27 10° SE
USA 267 3.4 16:58:18 10° NE 17:04:51 76° NNW 17:11:22 10° WSW
Cosmos 2369 3.9 17:00:38 10° NNW 17:06:12 48° ENE 17:11:42 10° SE
Cosmos 1980 Rocket 2.6 17:01:19 10° NNW 17:06:38 39° NE 17:11:53 10° ESE
Cosmos 1763 Rocket 3.4 17:02:06 10° SSW 17:07:10 82° ESE 17:12:17 10° NNE
COSMO-SKYMED 1 3.7 17:05:08 11° NE 17:08:24 23° E 17:11:54 10° SSE
Cosmos 1939 Rocket 2.9 17:04:19 10° SSE 17:08:26 88° WSW 17:12:33 10° NNW
MOS 1-B Rocket 4.5 17:03:13 10° NNE 17:08:48 41° E 17:15:02 10° SSE
SL-24 R/B - RUBIN 2 4.1 17:07:05 10° NNW 17:11:23 38° NE 17:15:27 10° ESE
Meteor 1-25 Rocket 4.1 17:06:20 10° N 17:11:56 78° ENE 17:17:32 10° SSE
Cosmos 841 Rocket 3.9 17:07:53 10° S 17:12:41 41° ESE 17:17:15 11° NE
Cosmos 1812 3.8 17:11:33 10° SE 17:14:41 25° E 17:16:32 17° NE
Cosmos 1937 Rocket 3.5 17:10:40 10° NNW 17:15:59 66° ENE 17:21:16 10° SSE
SL-16 R/B 3.6 17:12:30 10° N 17:16:11 17° NE 17:17:26 16° ENE
Cosmos 1634 Rocket 4.1 17:10:54 10° SSE 17:17:03 57° E 17:23:13 10° NNE
USA 307 4.2 17:15:16 10° WNW 17:18:57 27° N 17:21:20 17° NE
Cosmos 1633 Rocket 3.9 17:15:20 10° NNE 17:19:03 26° ENE 17:22:46 10° SE
Cosmos 2082 Rocket 2.7 17:14:54 10° S 17:20:11 41° ESE 17:24:27 15° NE
YAOGAN 1 4.5 17:22:20 13° NNE 17:22:20 13° NNE 17:23:11 10° NNE
USA 229 DEB 4.0 17:13:15 10° NW 17:20:38 85° SW 17:28:28 10° SSE
USA 229 4.0 17:13:21 10° NW 17:20:44 86° SW 17:28:33 10° SSE
NOAA 6 4.2 17:16:36 10° S 17:21:45 77° WSW 17:26:54 10° NNW
Cosmos 2026 Rocket 3.9 17:18:34 10° N 17:24:44 72° E 17:30:46 10° SSE
CZ-4B DEB 4.2 17:20:48 10° SSE 17:26:19 89° ENE 17:31:51 10° NNW
CORIOLIS 4.3 17:21:03 10° SSE 17:26:27 79° WSW 17:31:54 10° NNW
Cosmos 2195 Rocket 4.5 17:21:47 10° N 17:27:57 89° E 17:34:10 10° S
USA 276 3.6 17:26:31 10° WNW 17:29:25 35° SSW 17:32:18 10° SE
Okean O Rocket 2.1 17:25:31 10° SE 17:29:37 38° ENE 17:33:46 10° N
Cosmos 372 Rocket 4.0 17:25:08 10° NNW 17:30:17 56° ENE 17:35:26 10° SE
Cosmos 1602 3.7 17:26:37 10° N 17:30:29 83° W 17:34:21 10° S
Cosmos 2278 4.0 17:25:12 10° NNW 17:30:39 43° NE 17:36:02 10° SE
Cosmos 1743 Rocket 4.4 17:28:23 10° NNW 17:32:35 51° W 17:36:46 10° S
ATLAS CENTAUR R/B 4.0 17:31:35 10° NW 17:33:02 11° NNW 17:34:32 10° N
Cosmos 1151 Rocket 3.4 17:31:29 10° SSE 17:35:31 41° E 17:38:08 20° NNE
Cosmos 1782 2.7 17:31:33 10° S 17:35:32 77° E 17:39:31 10° NNE
Meteor 2-14 Rocket 4.4 17:30:48 10° N 17:36:57 82° E 17:43:01 10° S
COSMOS 2406 3.2 17:32:02 10° SSW 17:37:47 90° NE 17:43:04 13° NNE
USA 234 3.6 17:31:55 10° SE 17:38:26 69° SW 17:44:58 10° NW
COSMOS 2455 2.8 17:33:37 10° SSW 17:39:34 67° ESE 17:43:55 19° NE
USA 308 4.2 17:37:56 10° WNW 17:41:34 27° N 17:42:51 23° NNE
ARGOS 3.2 17:38:00 10° SSE 17:43:17 56° ENE 17:48:34 10° N
Cosmos 1666 Rocket 3.6 17:39:42 10° N 17:44:06 57° ENE 17:48:26 10° SSE
Cosmos 1833 Rocket 3.1 17:38:48 10° SW 17:44:22 64° WNW 17:49:48 11° NNE
Meteor 2-6 Rocket 4.5 17:44:11 10° SSE 17:49:38 45° E 17:53:25 19° NNE
ISS -3.7 17:46:25 10° WNW 17:49:49 61° NNE 17:50:10 56° ENE
Cosmos 1328 Rocket 3.9 17:45:41 10° SSE 17:49:51 42° E 17:50:52 36° ENE
NOSS 2-2 (D) 4.3 17:45:23 10° NW 17:50:38 82° NE 17:58:01 10° SE
CZ-2D R/B 3.8 17:47:11 10° S 17:50:59 60° W 17:54:47 10° NNW
CZ-4 R/B 4.3 17:50:00 10° SSE 17:54:03 62° ENE 17:58:09 10° N
SKYMED 2 3.4 17:53:44 20° NNE 17:56:42 73° ESE 18:01:01 10° S
Lacrosse 5 rocket 2.3 17:53:20 10° NW 17:56:30 29° NNE 17:56:30 29° NNE
Meteor 2-21 Rocket 4.4 17:52:33 10° N 17:58:42 89° E 18:04:46 10° S
Cosmos 1570 Rocket 4.0 17:54:57 10° S 18:00:04 57° ESE 18:02:05 35° NE
CZ-4B R/B 3.1 17:54:48 10° SSE 18:00:15 87° WSW 18:05:39 10° NNW
Meteor 2-8 Rocket 4.4 17:55:02 10° S 18:01:01 58° E 18:07:03 10° NNE
Landsat 5 3.4 18:00:26 50° ENE 18:01:03 56° E 18:04:58 10° S
ATLAS CENTAUR R/B 3.1 17:52:21 10° WSW 18:01:23 59° NW 18:03:21 32° NNE
SL-08 RB Rocket 3.7 17:58:34 10° SSE 18:03:06 57° ENE 18:07:38 10° N
GEOS 3 Rocket 3.8 18:02:08 38° E 18:03:44 51° NE 18:08:45 10° NNW
Cosmos 540 Rocket 4.0 17:59:04 10° SW 18:04:04 56° WNW 18:08:24 14° NNE
CZ-2C R/B 2.4 17:59:27 10° NNE 18:04:42 85° ESE 18:09:52 10° SSW
Cosmos 1500 4.1 18:01:09 10° NNW 18:04:46 48° W 18:08:22 10° S
Meteor 1-10 Rocket 4.4 18:02:12 10° SSE 18:07:42 47° E 18:09:02 39° ENE
Cosmos 1814 Rocket 3.8 18:02:33 10° SSW 18:07:47 76° ESE 18:10:08 33° NNE
Cosmos 1818 3.8 18:02:59 10° NNW 18:08:19 48° NE 18:09:03 45° ENE
Meteor 1-11 Rocket 4.1 18:03:13 10° N 18:07:50 39° NE 18:07:50 39° NE
USA 305 4.1 18:05:19 10° NW 18:08:56 28° N 18:08:56 28° N
Cosmos 44 Rocket 3.6 18:07:20 10° NNW 18:11:47 45° NE 18:11:47 45° NE
CZ-4C R/B 2.9 18:05:18 10° NW 18:12:32 78° NE 18:20:10 13° SE
Sich 1 4.5 18:09:30 10° NNW 18:13:29 38° W 18:17:28 10° SSW
Cosmos 1900 4.4 18:13:47 10° SSW 18:18:19 54° SE 18:18:19 54° SE
Feng Yun 1-1 Rocket 4.2 18:13:11 10° SSE 18:19:04 74° ENE 18:24:57 10° NNW
Cosmos 2360 Rocket 3.9 18:20:07 10° N 18:22:13 18° NNE 18:22:13 18° NNE
Cosmos 2208 Rocket 3.9 18:27:23 10° SSW 18:32:47 87° ESE 18:33:46 61° NNE
H-2A R/B 3.7 18:29:34 10° SSW 18:34:13 33° W 18:38:47 10° NNW
Cosmos 1666 3.9 18:30:54 10° NNW 18:34:24 39° W 18:37:52 10° SSW
Cosmos 2322 Rocket 3.3 18:38:41 10° NNW 18:41:55 31° N 18:41:55 31° N
COSMO-SKYMED 1 4.0 18:42:21 21° NNW 18:44:39 36° WNW 18:48:37 10° SW
USA 267 4.1 18:45:34 33° NNE 18:47:21 38° NNW 18:53:16 10° W
Cosmos 1980 Rocket 3.6 18:45:28 10° NW 18:50:36 36° WSW 18:55:40 10° S
Cosmos 2266 Rocket 4.0 18:45:08 10° N 18:51:32 82° W 18:57:56 10° S
SL-16 R/B 2.9 18:55:31 10° NNW 18:59:21 44° NNW 18:59:21 44° NNW
Meteor 2-15 Rocket 4.5 18:56:14 10° SSW 19:02:22 77° W 19:03:21 63° NNW
Cosmos 2082 Rocket 3.5 18:59:09 10° WSW 19:04:20 35° NW 19:06:20 27° NNW
Okean O Rocket 3.9 19:02:31 10° SSW 19:06:04 23° W 19:09:40 10° NW
Cosmos 2333 Rocket 4.5 19:05:27 10° N 19:06:11 13° N 19:06:11 13° N
ATLAS 2AS CENTAUR R/B 4.4 19:16:32 10° NNW 19:20:53 22° N 19:20:53 22° N
COSMOS 2455 4.4 19:20:51 10° W 19:26:00 29° NW 19:27:05 27° NNW
